Lebanon, NH

7:47 PM EDT on April 26, 2018 (GMT -0400)
Lebanon Municipal

Weather History for KLEB - April, 2014

Change the Weather History Date:

Thursday, April 24, 2014

  Actual Average Record
Temperature  
Mean Temperature 45 °F -  
Max Temperature 54 °F 58 °F 84 °F (2001)
Min Temperature 37 °F 36 °F 20 °F (1930)
Degree Days  
Heating Degree Days 20    
Moisture  
Dew Point 20 °F    
Average Humidity 38    
Maximum Humidity 51    
Minimum Humidity 27    
Precipitation  
Precipitation 0.00 in - - ()
Sea Level Pressure  
Sea Level Pressure 29.82 in    
Wind  
Wind Speed 16 mph (NNW)    
Max Wind Speed 23 mph    
Max Gust Speed 37 mph    
Visibility 10 miles    
Events      
Averages and records for this station are not official NWS values.
T = Trace of Precipitation, MM = Missing Value Source: NWS Daily Summary

Daily Weather History Graph

Daily Weather History Graph

Search for Another Location

Airport or City:

Astronomy

Apr. 24, 2014 Rise Set
Actual Time 5:52 AM EDT 7:43 PM EDT
Civil Twilight 5:21 AM EDT 8:14 PM EDT
Nautical Twilight 4:43 AM EDT 8:51 PM EDT
Astronomical Twilight 4:03 AM EDT 9:32 PM EDT
Moon 3:11 AM EDT (4/24) 2:46 PM EDT (4/24)
Length of Visible Light 14h 52m
Length of Day
13h 51m
Waning Crescent, 24% of the Moon is Illuminated
Apr 24
Waning Crescent
Apr 29
New
May 6
First Quarter
May 14
Full
May 21
Last Quarter

Hourly Weather History & Observations

Time (EDT) Temp. Windchill Dew Point Humidity Pressure Visibility Wind Dir Wind Speed Gust Speed Precip Events Conditions
12:53 AM 43.0 °F 33.8 °F 24.1 °F 47% 29.70 in 10.0 mi NW 23.0 mph 33.4 mph N/A   Mostly Cloudy
1:53 AM 41.0 °F 33.9 °F 23.0 °F 49% 29.70 in 10.0 mi NNW 12.7 mph 31.1 mph N/A   Clear
2:53 AM 39.9 °F 31.8 °F 21.0 °F 47% 29.71 in 10.0 mi NNW 15.0 mph 27.6 mph N/A   Clear
3:53 AM 39.0 °F 31.8 °F 18.0 °F 43% 29.72 in 10.0 mi NNW 11.5 mph 28.8 mph N/A   Clear
4:53 AM 37.9 °F 27.9 °F 17.1 °F 43% 29.73 in 10.0 mi NW 19.6 mph 32.2 mph N/A   Clear
5:53 AM 37.0 °F 28.1 °F 17.1 °F 44% 29.75 in 10.0 mi NW 15.0 mph 20.7 mph N/A   Clear
6:53 AM 37.0 °F 27.7 °F 17.1 °F 44% 29.76 in 10.0 mi NNW 16.1 mph 26.5 mph N/A   Clear
7:53 AM 37.9 °F 30.0 °F 17.1 °F 43% 29.78 in 10.0 mi NNW 12.7 mph 25.3 mph N/A   Mostly Cloudy
8:53 AM 39.9 °F 32.1 °F 18.0 °F 41% 29.79 in 10.0 mi NW 13.8 mph 33.4 mph N/A   Partly Cloudy
9:53 AM 41.0 °F 31.6 °F 18.0 °F 40% 29.81 in 10.0 mi NNW 20.7 mph 32.2 mph N/A   Mostly Cloudy
10:53 AM 45.0 °F 38.2 °F 21.0 °F 39% 29.82 in 10.0 mi NNW 15.0 mph 25.3 mph N/A   Scattered Clouds
11:53 AM 48.0 °F - 21.0 °F 34% 29.81 in 10.0 mi North 17.3 mph 31.1 mph N/A   Clear
12:53 PM 51.1 °F - 21.9 °F 32% 29.80 in 10.0 mi NNW 13.8 mph 24.2 mph N/A   Partly Cloudy
1:53 PM 53.1 °F - 21.0 °F 29% 29.80 in 10.0 mi NNW 16.1 mph 32.2 mph N/A   Mostly Cloudy
2:53 PM 52.0 °F - 21.0 °F 30% 29.81 in 10.0 mi North 23.0 mph 32.2 mph N/A   Partly Cloudy
3:53 PM 53.1 °F - 21.0 °F 29% 29.82 in 10.0 mi North 20.7 mph 31.1 mph N/A   Scattered Clouds
4:53 PM 53.1 °F - 19.9 °F 27% 29.83 in 10.0 mi NNW 18.4 mph 36.8 mph N/A   Partly Cloudy
5:53 PM 52.0 °F - 21.0 °F 30% 29.86 in 10.0 mi NNW 19.6 mph 35.7 mph N/A   Clear
6:53 PM 51.1 °F - 21.0 °F 31% 29.88 in 10.0 mi NNW 15.0 mph 25.3 mph N/A   Scattered Clouds
7:53 PM 50.0 °F - 21.9 °F 33% 29.90 in 10.0 mi NNW 10.4 mph 18.4 mph N/A   Overcast
8:53 PM 48.9 °F - 21.9 °F 35% 29.93 in 10.0 mi NW 10.4 mph - N/A   Overcast
9:53 PM 48.0 °F - 21.9 °F 36% 29.95 in 10.0 mi NNW 8.1 mph - N/A   Overcast
10:53 PM 46.0 °F 42.5 °F 21.9 °F 39% 29.96 in 10.0 mi NNW 6.9 mph - N/A   Clear
11:53 PM 41.0 °F 39.0 °F 24.1 °F 51% 29.96 in 10.0 mi Variable 3.5 mph - N/A   Clear